{"data":{"norad_id":41899,"epoch":"2026-05-24T23:26:58.994880Z","epoch_age_seconds":87183,"freshness":"FRESH","line1":"1 41899U 16081B   26144.97707170  .00000469  00000+0  10627-3 0  9999","line2":"2 41899  98.5374 142.1582 0021442  24.1464 336.0735 14.60731393501208","mean_motion":14.60731393,"eccentricity":0.0021442,"inclination_deg":98.5374,"raan_deg":142.1582,"arg_perigee_deg":24.1464,"mean_anomaly_deg":336.0735,"bstar":0.00010627,"rev_number":50120,"period_min":98.580752553183,"perigee_km":675.6561291437,"apogee_km":705.97061592127,"semimajor_km":7068.9503725325,"source":"CELESTRAK","updated_at":"2026-05-25T13:37:55.656820Z"}}